FW4141 Weather Reports


time (UTC)temp
C
wind
direction
speed
KPH
gust
KPH
rain 1hr
cm
rain 24hr
cm
rain mn
cm
humidity
%
barometer
mb
20260904042057 17 219 4.8 8.0 0.00 0.00 0.00 77 1006.9
20260904041052 17 325 1.6 6.4 0.00 0.00 0.00 77 1007.0
20260904040048 17 279 3.2 6.4 0.00 0.00 0.00 76 1006.8
20260904035126 17 306 3.2 6.4 0.00 0.00 0.00 76 1006.6
20260904034101 17 248 1.6 4.8 0.00 0.00 0.00 76 1006.8
20260904033036 17 360 3.2 6.4 0.00 0.00 0.00 76 1006.9
20260904032033 17 284 4.8 6.4 0.00 0.00 0.00 76 1007.2
20260904031050 17 301 4.8 8.0 0.00 0.00 0.00 75 1007.3
20260904030026 18 14 3.2 6.4 0.00 0.00 0.00 76 1007.5
20260904025023 17 318 4.8 8.0 0.00 0.00 0.00 76 1007.4
20260904024019 18 295 3.2 6.4 0.00 0.00 0.00 76 1007.5
20260904023016 17 103 3.2 6.4 0.00 0.00 0.00 76 1007.5
20260904022133 17 343 4.8 8.0 0.00 0.00 0.00 76 1007.0
20260904021110 17 53 1.6 6.4 0.00 0.00 0.00 76 1007.0
20260904020106 17 7 3.2 6.4 0.00 0.00 0.00 75 1006.9
20260904015101 17 301 3.2 8.0 0.00 0.00 0.00 75 1007.2
20260904014058 17 308 4.8 11.3 0.00 0.00 0.00 75 1007.3
20260904013054 17 301 4.8 12.9 0.00 0.00 0.00 75 1007.2
20260904012051 17 310 3.2 6.4 0.00 0.00 0.00 76 1007.3
20260904011048 17 313 3.2 6.4 0.00 0.00 0.00 76 1007.3
20260904010043 17 291 4.8 8.0 0.00 0.00 0.00 76 1007.5
20260904005040 17 318 1.6 9.7 0.00 0.00 0.00 76 1007.6
20260904004037 17 264 1.6 6.4 0.00 0.00 0.00 76 1007.5
20260904003033 17 0 0.0 3.2 0.00 0.00 0.00 76 1007.6
20260904002029 17 315 0.0 4.8 0.00 0.00 0.00 76 1007.7
20260904001024 17 123 1.6 3.2 0.00 0.00 0.00 76 1007.8
20260903235018 18 261 3.2 4.8 0.00 0.00 0.00 75 1007.9
20260903234134 18 325 1.6 6.4 0.00 0.00 0.00 75 1008.0
20260903233110 18 341 1.6 4.8 0.00 0.00 0.00 74 1008.0
20260903232130 18 263 4.8 8.0 0.00 0.00 0.00 73 1008.1
20260903231104 18 291 4.8 6.4 0.00 0.00 0.00 73 1008.2
20260903230101 18 16 3.2 6.4 0.00 0.00 0.00 73 1008.2
20260903225057 18 335 3.2 9.7 0.00 0.00 0.00 73 1008.2
20260903224055 18 343 6.4 14.5 0.00 0.00 0.00 73 1008.0
20260903223050 18 333 3.2 8.0 0.00 0.00 0.00 73 1008.0
20260903222046 18 307 4.8 8.0 0.00 0.00 0.00 73 1008.1
20260903221043 18 252 4.8 8.0 0.00 0.00 0.00 72 1008.2
20260903220039 18 309 6.4 12.9 0.00 0.00 0.00 72 1008.3
20260903215036 18 280 6.4 12.9 0.00 0.00 0.00 72 1008.2
20260903214032 18 35 4.8 11.3 0.00 0.00 0.00 72 1008.1
20260903213049 18 339 4.8 9.7 0.00 0.00 0.00 72 1008.3
20260903212026 18 268 4.8 11.3 0.00 0.00 0.00 72 1008.3
20260903211021 18 336 6.4 12.9 0.00 0.00 0.00 71 1008.3
20260903210017 18 12 3.2 12.9 0.00 0.00 0.00 71 1008.2
20260903205135 19 18 4.8 11.3 0.00 0.00 0.00 70 1008.2
20260903204110 19 269 6.4 12.9 0.00 0.00 0.00 70 1008.3
20260903203107 19 1 6.4 16.1 0.00 0.00 0.00 70 1008.3
20260903202102 19 325 4.8 8.0 0.00 0.00 0.00 68 1008.3
20260903201118 19 305 4.8 9.7 0.00 0.00 0.00 66 1008.2
20260903200058 20 221 4.8 8.0 0.00 0.00 0.00 65 1008.1
20260903195114 20 200 6.4 14.5 0.00 0.00 0.00 63 1008.1
20260903194049 20 91 3.2 6.4 0.00 0.00 0.00 62 1008.2
20260903193045 20 2 6.4 12.9 0.00 0.00 0.00 62 1008.3
20260903192042 20 52 8.0 14.5 0.00 0.00 0.00 61 1008.2
20260903191039 20 22 9.7 17.7 0.00 0.00 0.00 61 1008.1
20260903190034 20 300 6.4 9.7 0.00 0.00 0.00 61 1007.9
20260903185031 20 314 6.4 14.5 0.00 0.00 0.00 62 1007.9
20260903184031 19 332 4.8 9.7 0.00 0.00 0.00 63 1008.0
20260903183024 19 342 1.6 4.8 0.00 0.00 0.00 64 1008.0
20260903182020 19 0.0 1.6 0.00 0.00 0.00 63 1007.8
20260903181116 20 0.0 1.6 0.00 0.00 0.00 62 1007.8
20260903180112 20 338 0.0 3.2 0.00 0.00 0.00 62 1007.8
20260903175109 20 0.0 0.0 0.00 0.00 0.00 61 1007.7
20260903174105 20 24 0.0 3.2 0.00 0.00 0.00 60 1007.7
20260903173102 21 225 0.0 4.8 0.00 0.00 0.00 57 1008.0
20260903172057 21 34 1.6 6.4 0.00 0.00 0.00 56 1008.0
20260903171053 21 13 1.6 4.8 0.00 0.00 0.00 55 1008.0
20260903170052 21 10 1.6 9.7 0.00 0.00 0.00 53 1008.1
20260903165048 22 353 6.4 9.7 0.00 0.00 0.00 52 1008.2
20260903164043 22 346 4.8 12.9 0.00 0.00 0.00 52 1008.3
20260903163040 22 273 6.4 12.9 0.00 0.00 0.00 48 1008.3
20260903162040 22 321 4.8 11.3 0.00 0.00 0.00 47 1008.4
20260903161032 22 286 4.8 9.7 0.00 0.00 0.00 48 1008.6
20260903160052 22 295 6.4 12.9 0.00 0.00 0.00 48 1008.7
20260903155025 22 330 4.8 12.9 0.00 0.00 0.00 47 1008.6
20260903154043 22 246 4.8 12.9 0.00 0.00 0.00 45 1008.7
20260903153021 23 286 6.4 9.7 0.00 0.00 0.00 45 1008.7
20260903152136 23 353 4.8 11.3 0.00 0.00 0.00 44 1008.6
20260903151117 23 212 8.0 16.1 0.00 0.00 0.00 43 1008.7
20260903150109 25 356 6.4 11.3 0.00 0.00 0.00 41 1008.7
20260903145108 25 247 6.4 12.9 0.00 0.00 0.00 42 1008.9
20260903144101 23 287 4.8 16.1 0.00 0.00 0.00 44 1008.9
20260903143123 23 276 3.2 6.4 0.00 0.00 0.00 44 1009.2
20260903142057 23 329 6.4 11.3 0.00 0.00 0.00 42 1009.3
20260903141051 23 9 4.8 16.1 0.00 0.00 0.00 41 1009.4
20260903140047 23 339 3.2 6.4 0.00 0.00 0.00 42 1009.5
20260903135044 23 296 6.4 12.9 0.00 0.00 0.00 41 1009.5
20260903134113 23 231 4.8 11.3 0.00 0.00 0.00 42 1009.6
20260903133035 23 65 6.4 12.9 0.00 0.00 0.00 43 1009.7
20260903132032 23 291 4.8 8.0 0.00 0.00 0.00 43 1009.7
20260903131031 23 290 6.4 11.3 0.00 0.00 0.00 44 1009.7
20260903130026 24 296 6.4 11.3 0.00 0.00 0.00 44 1009.8
20260903125023 24 323 6.4 11.3 0.00 0.00 0.00 44 1009.9
20260903124018 24 293 4.8 9.7 0.00 0.00 0.00 45 1009.8
20260903123119 23 305 4.8 8.0 0.00 0.00 0.00 44 1009.9
20260903122133 25 342 4.8 11.3 0.00 0.00 0.00 44 1010.0
20260903121108 25 324 4.8 11.3 0.00 0.00 0.00 45 1010.0
20260903120106 23 309 3.2 6.4 0.00 0.00 0.00 46 1010.1
20260903115101 23 321 6.4 9.7 0.00 0.00 0.00 44 1010.2
20260903114058 24 294 4.8 9.7 0.00 0.00 0.00 43 1010.3
20260903113052 24 305 4.8 6.4 0.00 0.00 0.00 44 1010.4
20260903112048 23 290 6.4 11.3 0.00 0.00 0.00 45 1010.5
20260903111105 23 0 6.4 12.9 0.00 0.00 0.00 44 1010.6
20260903110041 23 322 8.0 12.9 0.00 0.00 0.00 44 1010.9
20260903105038 23 338 4.8 6.4 0.00 0.00 0.00 45 1010.8
20260903104034 23 311 4.8 11.3 0.00 0.00 0.00 45 1010.8
20260903103031 23 342 4.8 11.3 0.00 0.00 0.00 44 1010.9
20260903102026 23 264 4.8 8.0 0.00 0.00 0.00 44 1011.0
20260903101023 23 320 3.2 8.0 0.00 0.00 0.00 44 1011.1
20260903100019 23 302 4.8 11.3 0.00 0.00 0.00 44 1011.1
20260903095116 23 278 4.8 9.7 0.00 0.00 0.00 44 1011.1
20260903094112 23 291 4.8 8.0 0.00 0.00 0.00 45 1011.1
20260903093129 24 336 6.4 9.7 0.00 0.00 0.00 43 1011.1
20260903092104 25 23 4.8 12.9 0.00 0.00 0.00 43 1011.2
20260903091104 25 251 4.8 8.0 0.00 0.00 0.00 44 1011.2
20260903090059 24 296 6.4 11.3 0.00 0.00 0.00 44 1011.2
20260903085114 23 12 6.4 12.9 0.00 0.00 0.00 47 1011.4
20260903084050 23 241 4.8 8.0 0.00 0.00 0.00 49 1011.3
20260903083046 23 298 1.6 6.4 0.00 0.00 0.00 52 1011.4
20260903082043 22 277 3.2 8.0 0.00 0.00 0.00 51 1011.3
20260903081039 22 297 3.2 6.4 0.00 0.00 0.00 56 1011.4
20260903080036 22 45 3.2 8.0 0.00 0.00 0.00 58 1011.4
20260903075033 21 289 1.6 6.4 0.00 0.00 0.00 61 1011.4
20260903074049 21 237 4.8 8.0 0.00 0.00 0.00 61 1011.6
20260903073025 21 360 1.6 6.4 0.00 0.00 0.00 62 1011.6
20260903072024 20 225 3.2 6.4 0.00 0.00 0.00 64 1011.6
20260903071019 20 239 4.8 8.0 0.00 0.00 0.00 64 1011.7
20260903070117 20 339 1.6 3.2 0.00 0.00 0.00 66 1011.7
20260903065110 20 247 1.6 4.8 0.00 0.00 0.00 69 1011.8
20260903064109 19 291 1.6 6.4 0.00 0.00 0.00 70 1011.7
20260903063126 18 250 1.6 6.4 0.00 0.00 0.00 72 1011.9
20260903062059 17 0.0 0.0 0.00 0.00 0.00 74 1011.8
20260903061056 17 315 0.0 3.2 0.00 0.00 0.00 76 1011.7
20260903060053 17 295 1.6 4.8 0.00 0.00 0.00 79 1011.7
20260903055049 17 272 3.2 6.4 0.00 0.00 0.00 82 1011.7
20260903054108 16 216 1.6 4.8 0.00 0.00 0.00 83 1011.6
20260903053044 16 203 0.0 4.8 0.00 0.00 0.00 86 1011.6
20260903052059 15 0.0 3.2 0.00 0.00 0.00 90 1011.7
20260903051055 15 180 0.0 3.2 0.00 0.00 0.00 91 1011.7
20260903050032 14 15 0.0 3.2 0.00 0.00 0.00 91 1011.6
20260903045028 13 270 0.0 3.2 0.00 0.00 0.00 91 1011.5
20260903044024 13 0.0 0.0 0.00 0.00 0.00 90 1011.6
20260903043020 13 0.0 0.0 0.00 0.00 0.00 90 1011.7